Flag for Colombia Weather past 2 weeks in Medellin, Colombia

Now
55 °F

Passing clouds.


Feels Like: 55 °F
Forecast: 59 / 86 °F
Wind: No wind

Location: Rionegro / J. M. Cordova

Current Time: Oct 2, 2014 at 4:28:40 AM

Latest Report: Oct 2, 2014 at 4:00 AM


Visibility: N/A

Pressure: 30.25 "Hg

Humidity: 88%

Dew point: 52 °F

Location of MedellinLocation

Historic Weather in Medellin — Graph

°F

Medellin temperature yesterday

Maximum temperature yesterday: 73 °F (at 3:00 PM)
Minimum temperature yesterday: 50 °F (at 6:00 AM)
Average temperature yesterday: 62 °F

Past Weeks' High & Low Weather Summary

 TemperatureHumidityPressure
High73 °F (Sep 17, 4:00 PM)100% (Sep 17, 5:00 AM)30.41 "Hg (Sep 17, 5:00 AM)
Low50 °F (Oct 1, 6:00 AM)38% (Sep 17, 4:00 PM)30.15 "Hg (Sep 27, 4:00 PM)
Average62 °F79%30.29 "Hg
* Reported Sep 17 3:00 AM — Oct 2 3:00 AM, Medellin, Weather by CustomWeather, © 2014

Note: Actual official high and low records may vary slightly from our data, if they occured in-between our weather recording intervals... More about our weather records

Advertising

Medellin weather history for previous 24 hours

 ConditionsComfort  
Time TempWeatherWind HumidityBarometerVisibility
3:00 AM
Oct 2
55 °FPassing clouds.2 mph94%30.26 "HgN/A
2:00 AM59 °FPassing clouds.No wind82%30.27 "HgN/A
1:00 AM59 °FPassing clouds.No wind82%30.29 "HgN/A
12:00 AM59 °FPassing clouds.No wind88%30.32 "HgN/A
11:00 PM
Oct 1
59 °FPassing clouds.7 mph88%30.33 "HgN/A
10:00 PM61 °FPassing clouds.No wind77%30.31 "HgN/A
9:00 PM63 °FPassing clouds.7 mph77%30.29 "HgN/A
8:00 PM64 °FPassing clouds.7 mph73%30.27 "HgN/A
7:00 PM64 °FPartly cloudy.7 mph73%30.25 "HgN/A
6:00 PM66 °FPassing clouds.12 mph68%30.22 "HgN/A
5:00 PM70 °FBroken clouds.12 mph50%30.20 "HgN/A
4:00 PM72 °FPartly sunny.13 mph44%30.19 "HgN/A
3:00 PM73 °FPartly sunny.13 mph38%30.21 "HgN/A
2:00 PM72 °FPartly sunny.7 mph44%30.24 "HgN/A
1:00 PM72 °FScattered clouds.14 mph44%30.27 "HgN/A
12:00 PM72 °FPartly sunny.13 mph41%30.28 "HgN/A
11:00 AM72 °FPartly sunny.12 mph44%30.32 "HgN/A
10:00 AM64 °FScattered clouds.No wind73%30.33 "HgN/A
9:00 AM59 °FBroken clouds.No wind88%30.33 "HgN/A
8:00 AM54 °FDrizzle. Partly sunny.No wind100%30.33 "Hg2 mi
7:00 AM54 °FScattered showers. Partly sunny.No wind94%30.30 "HgN/A
6:00 AM50 °FFog.No wind94%30.29 "HgN/A
5:00 AM52 °FFog.No wind94%30.28 "Hg5 mi
4:00 AM54 °FPassing clouds.No wind88%30.27 "HgN/A
Weather by CustomWeather, © 2014

See weather overviewHow to use our weather pages